Flag for Jordan Weather past 2 weeks in Amman, Jordan

Now
41 °F

Haze.


Feels Like: 41 °F
Forecast: 43 / 60 °F
Wind: No wind

Location: Amman Airport

Current Time: Jan 31, 2015 at 8:35:56 AM

Latest Report: Jan 31, 2015 at 8:00 AM


Visibility: 3 mi

Pressure: 30.18 "Hg

Humidity: 61%

Dew point: 28 °F

Location of AmmanLocation

Historic Weather in Amman — Graph

°F

Amman temperature yesterday

Maximum temperature yesterday: 52 °F (at 12:00 PM)
Minimum temperature yesterday: 43 °F (at 7:00 AM)
Average temperature yesterday: 48 °F

Past Weeks' High & Low Weather Summary

 TemperatureHumidityPressure
High66 °F (Jan 22, 1:00 PM)100% (Jan 17, 7:00 AM)30.33 "Hg (Jan 17, 7:00 AM)
Low37 °F (Jan 19, 6:00 AM)24% (Jan 22, 4:00 PM)29.86 "Hg (Jan 28, 8:00 AM)
Average50 °F63%30.12 "Hg
* Reported Jan 16 7:00 AM — Jan 31 7:00 AM, Amman, Weather by CustomWeather, © 2014

Note: Actual official high and low records may vary slightly from our data, if they occured in-between our weather recording intervals... More about our weather records

Advertising

Amman weather history for previous 24 hours

 ConditionsComfort  
Time TempWeatherWind HumidityBarometerVisibility
7:00 AM
Jan 31
39 °FHaze.6 mph65%30.21 "Hg3 mi
6:00 AM39 °FHaze.No wind65%30.15 "Hg3 mi
5:00 AM41 °FHaze.No wind66%30.12 "Hg3 mi
4:00 AM41 °FClear.No wind66%30.15 "Hg4 mi
3:00 AM43 °FClear.No wind57%30.15 "Hg4 mi
2:00 AM43 °FClear.No wind57%30.15 "Hg4 mi
1:00 AM43 °FClear.No wind57%30.18 "Hg4 mi
12:00 AM43 °FClear.No wind57%30.15 "Hg4 mi
11:00 PM
Jan 30
43 °FClear.No wind57%30.18 "Hg4 mi
9:00 PM45 °FClear.No wind53%30.12 "Hg4 mi
8:00 PM46 °FClear.5 mph50%30.09 "Hg4 mi
7:00 PM48 °FClear.5 mph40%30.09 "Hg4 mi
6:00 PM48 °FClear.9 mph40%30.07 "Hg4 mi
5:00 PM50 °FClear.16 mph37%30.07 "Hg4 mi
4:00 PM52 °FClear.12 mph32%30.07 "Hg4 mi
3:00 PM52 °FScattered clouds.23 mph38%30.04 "Hg4 mi
2:00 PM52 °FScattered clouds.23 mph38%30.04 "Hg4 mi
1:00 PM52 °FScattered clouds.23 mph44%30.04 "Hg4 mi
12:00 PM52 °FScattered clouds.14 mph50%30.07 "Hg4 mi
11:00 AM50 °FScattered clouds.17 mph54%30.04 "Hg3 mi
10:00 AM50 °FHaze.17 mph58%30.07 "Hg3 mi
9:00 AM48 °FHaze.14 mph62%30.01 "Hg2 mi
Weather by CustomWeather, © 2014

See weather overviewHow to use our weather pages